TimeMST,TemperatureF,Dew PointF,Humidity,Sea Level PressureIn,VisibilityMPH,Wind Direction,Wind SpeedMPH,Gust SpeedMPH,PrecipitationIn,Events,Conditions,WindDirDegrees,DateUTC
12:53 AM,30.9,19.0,61,29.85,10.0,WNW,9.2,-,N/A,,Partly Cloudy,290,2014-01-11 07:53:00
1:53 AM,33.1,19.9,59,29.85,10.0,WNW,12.7,-,N/A,,Partly Cloudy,290,2014-01-11 08:53:00
2:53 AM,36.0,19.9,52,29.88,10.0,West,15.0,-,N/A,,Mostly Cloudy,280,2014-01-11 09:53:00
3:53 AM,33.1,19.9,59,29.91,10.0,WNW,13.8,-,N/A,,Mostly Cloudy,290,2014-01-11 10:53:00
4:53 AM,30.0,19.0,64,29.95,10.0,WNW,12.7,-,N/A,,Overcast,290,2014-01-11 11:53:00
5:53 AM,28.9,18.0,64,29.96,10.0,West,10.4,-,N/A,,Clear,280,2014-01-11 12:53:00
6:53 AM,30.9,19.0,61,29.99,10.0,West,13.8,-,N/A,,Mostly Cloudy,280,2014-01-11 13:53:00
7:53 AM,34.0,19.0,54,29.98,10.0,NW,12.7,-,N/A,,Clear,310,2014-01-11 14:53:00
8:53 AM,39.0,21.0,49,29.98,10.0,NW,10.4,-,N/A,,Clear,320,2014-01-11 15:53:00
9:53 AM,46.9,19.9,34,29.97,10.0,NNW,16.1,-,N/A,,Clear,340,2014-01-11 16:53:00
10:53 AM,48.9,19.0,31,29.95,10.0,WNW,9.2,-,N/A,,Partly Cloudy,290,2014-01-11 17:53:00
11:53 AM,51.1,19.9,29,29.91,10.0,WNW,10.4,-,N/A,,Clear,300,2014-01-11 18:53:00
12:53 PM,51.1,21.0,31,29.88,10.0,West,8.1,-,N/A,,Clear,260,2014-01-11 19:53:00
1:53 PM,52.0,21.0,30,29.84,10.0,WSW,15.0,23.0,N/A,,Clear,240,2014-01-11 20:53:00
2:53 PM,52.0,21.0,30,29.82,10.0,SW,17.3,25.3,N/A,,Clear,220,2014-01-11 21:53:00
3:53 PM,50.0,21.0,32,29.81,10.0,SSW,12.7,19.6,N/A,,Clear,200,2014-01-11 22:53:00
4:53 PM,46.9,21.0,36,29.80,10.0,SSW,15.0,-,N/A,,Clear,210,2014-01-11 23:53:00
5:53 PM,42.1,21.0,43,29.79,10.0,SSW,16.1,-,N/A,,Clear,210,2014-01-12 00:53:00
6:53 PM,41.0,21.0,45,29.77,10.0,SSW,10.4,-,N/A,,Clear,210,2014-01-12 01:53:00
7:53 PM,39.0,21.9,50,29.73,10.0,SSW,17.3,-,N/A,,Clear,210,2014-01-12 02:53:00
8:53 PM,37.9,21.9,53,29.70,10.0,SW,12.7,-,N/A,,Clear,220,2014-01-12 03:53:00
9:53 PM,39.9,23.0,51,29.65,10.0,SW,10.4,-,N/A,,Clear,220,2014-01-12 04:53:00
10:53 PM,39.9,23.0,51,29.61,10.0,SW,11.5,-,N/A,,Clear,220,2014-01-12 05:53:00
11:53 PM,37.9,23.0,55,29.58,10.0,WSW,9.2,-,N/A,,Clear,240,2014-01-12 06:53:00